Regional Weather Roundup
Issued by NWS

Home | Current Version | Previous Version | Text Only | Print | Product List | Glossary Off
Versions: 1 2 3 4 5 6 7 8 9 10 11 12 13 14 15 16 17 18 19 20 21 22 23 24 25 26 27 28 29 30 31 32 33 34 35 36 37 38 39 40 41 42 43 44 45 46 47 48 49 50

000
ASUS45 KSLC 060710
RWRUT

UTAH REGIONAL WEATHER ROUNDUP
NATIONAL WEATHER SERVICE SALT LAKE CITY UT
1200 AM MST FRI MAR 06 2015

UTZ001>011-023>025-060800-

NORTHERN UTAH

CITY           SKY/WX    TMP DP  RH WIND       PRES   REMARKS
BRIGHAM CITY   CLEAR     31  26  80 CALM      30.43S
HILL AFB       PTCLDY    34  16  48 E13       30.41F WCI  25
LOGAN          CLEAR     28  21  75 CALM      30.43S
OGDEN          CLEAR     32  21  64 S9        30.41F WCI  24
PROVO AIRPORT  PTCLDY    30  23  74 CALM      30.44F
SALT LAKE CITY PTCLDY    35  22  58 S7        30.42S WCI  29
VERNAL         PTCLDY    26  17  68 CALM      30.40F
WENDOVER       PTCLDY    34  19  55 NE8       30.40F WCI  27
HEBER CITY     PTCLDY    21  18  86 SE3       30.44F
WEST JORDAN    CLEAR     34  23  64 S8        30.43S WCI  27

$$

UTZ012>022-026-027-060800-

SOUTHERN/CENTRAL UTAH

CITY           SKY/WX    TMP DP  RH WIND       PRES   REMARKS
BLANDING       CLEAR     30  24  78 N9        30.47S WCI  21
BRYCE CANYON   PTCLDY     2  -3  80 W8        30.43S WCI -12
CEDAR CITY     CLEAR     23  15  71 NE3       30.39F
DELTA          CLEAR     29  24  79 CALM      30.43S
HANKSVILLE     CLEAR     32  23  69 CALM      30.43F
MILFORD        CLEAR     27  22  81 CALM      30.41F
MOAB/CYNLANDS  CLEAR     29  18  63 CALM      30.40S
PRICE          CLEAR     26  17  68 N8        30.39F WCI  18
ST GEORGE      MOSUNNY   43  27  52 CALM      30.38S
KANAB          CLEAR     32  21  64 NE7       30.42F WCI  26

$$

REGIONAL REPORTS     COLORADO/ARIZONA

CITY           SKY/WX    TMP DP  RH WIND       PRES   REMARKS
CRAIG, CO      CLEAR     16  11  80 CALM      30.40S
GRAND JUNCTION CLEAR     29  19  66 E5        30.42S WCI  24
RIFLE          CLEAR     27  19  72 CALM      30.44R
MONTROSE       CLEAR     27  18  69 SE7       30.44F WCI  19
CORTEZ         CLEAR     24  19  81 NE6       30.40F WCI  17
PAGE, AZ       CLEAR     38  24  57 CALM      30.38F
GRAND CANYON   CLEAR     18  15  88 NE5       30.39F WCI  11
KINGMAN        CLEAR     39  28  64 E8        30.31F WCI  33
FLAGSTAFF      PTCLDY    19  11  70 CALM      30.36F

$$

REGIONAL REPORTS    NEVADA/IDAHO/WYOMING

CITY           SKY/WX    TMP DP  RH WIND       PRES   REMARKS
LAS VEGAS, NV  CLEAR     51  31  46 S9        30.28F
ELY            CLEAR     25  20  81 S13       30.42S WCI  14
ELKO           CLEAR     27  15  61 E5        30.41R WCI  22
POCATELLO, ID  CLEAR     40  18  41 S12       30.36S WCI  33
BURLEY         CLEAR     33  15  47 S9        30.35S WCI  25
EVANSTON, WY   PTCLDY    22  13  68 SW10      30.40S WCI  11
ROCK SPRINGS   PTCLDY    27  15  61 SW12      30.34S WCI  17

$$


USA.gov is the U.S. government's official web portal to all federal, state and local government web resources and services.